GOES 16 [+]

Last updated on Fri Dec 29 2023 00:02:21 GMT+0000 (Coordinated Universal Time)

1 41866U 16071A 23362.09767889 -.00000239 00000+0 00000+0 0 9993 2 41866 0.0770 250.2861 0001425 55.7346 110.2351 1.00271152 26052
UTC large
Height (km)
Speed (km/s)
/
Latitude / Longitude
Inclination (degrees)
Orbital Period (minutes)
Azimuth
Elevation
Range (km)
Doppler Factor

Next 0 passes for location: London (51.5072 / 0.1276)

Sorry there are no passes over London.